Location: Arbon
(43.0005°N, 0.7472°E)
Time: 06:34:50
(UTC+00:00)

Vanguard 1 - Pass Details

Date: 03 December 2020
Orbit: 648 x 3834 km, 34.3° (Epoch: 21 January)

Event Time Altitude Azimuth Distance (km) Brightness Sun altitude
Rises 03:01:49 0° 215° (SW) 2,972 - -44.7°
Reaches altitude 10° 03:04:29 10° 196° (SSW) 2,171 - -44.3°
Maximum altitude 03:07:57 19° 150° (SSE) 1,846 - -43.6°
Exits shadow 03:10:18 16° 121° (ESE) 2,256 12.2 -43.2°
Drops below altitude 10° 03:12:22 10° 105° (ESE) 2,854 13.0 -42.8°
Sets 03:16:34 0° 90° (E) 4,310 14.2 -42.1°
